This is the latest recevied weather packets stored in our database for station/object NQ9F. If no packets are shown the sender has not sent any weather packets the latest 10 day(s).
| Time | Temp. | Humidity | Pressure | Rain* | Wind** | Luminosity | Snow |
|---|---|---|---|---|---|---|---|
| 1777992975 | 23.33° C | 80% | 1004.3 hPa | 0 mm | - | 271 W/m² | - |
| 1777992673 | 23.33° C | 80% | 1004.2 hPa | 0 mm | - | 272 W/m² | - |
| 1777992370 | 23.33° C | 81% | 1004.2 hPa | 0 mm | - | 306 W/m² | - |
| 1777992068 | 22.78° C | 82% | 1003.9 hPa | 0 mm | - | 336 W/m² | - |
| 1777991766 | 22.22° C | 83% | 1004.1 hPa | 0 mm | - | 243 W/m² | - |
| 1777991462 | 22.22° C | 84% | 1004 hPa | 0 mm | - | 224 W/m² | - |
| 1777991159 | 22.22° C | 83% | 1003.9 hPa | 0 mm | - | 276 W/m² | - |
| 1777990857 | 22.22° C | 83% | 1004.1 hPa | 0 mm | - | 248 W/m² | - |
| 1777990554 | 22.22° C | 84% | 1004.1 hPa | 0 mm | - | 256 W/m² | - |
| 1777989947 | 21.67° C | 84% | 1003.9 hPa | 0 mm | - | 219 W/m² | - |
| 1777989644 | 21.67° C | 84% | 1003.9 hPa | 0 mm | - | 188 W/m² | - |
| 1777989340 | 21.67° C | 84% | 1004 hPa | 0 mm | - | 214 W/m² | - |
| 1777989037 | 21.67° C | 85% | 1004.3 hPa | 0 mm | - | 201 W/m² | - |
| 1777988733 | 21.67° C | 85% | 1004.2 hPa | 0 mm | - | 170 W/m² | - |
| 1777988430 | 21.67° C | 85% | 1004.1 hPa | 0 mm | - | 158 W/m² | - |
| 1777988127 | 21.67° C | 85% | 1004.1 hPa | 0 mm | - | 157 W/m² | - |
| 1777987823 | 21.67° C | 85% | 1003.8 hPa | 0 mm | - | 169 W/m² | - |
| 1777987520 | 21.11° C | 86% | 1003.7 hPa | 0 mm | - | 131 W/m² | - |
| 1777987217 | 21.11° C | 86% | 1003.7 hPa | 0 mm | - | 112 W/m² | - |
| 1777986914 | 21.11° C | 86% | 1003.8 hPa | 0 mm | - | 95 W/m² | - |
| 1777986612 | 21.11° C | 86% | 1003.7 hPa | 0 mm | - | 102 W/m² | - |
| 1777986309 | 21.11° C | 86% | 1003.7 hPa | 0 mm | - | 112 W/m² | - |
| 1777986008 | 21.11° C | 86% | 1003.5 hPa | 0 mm | - | 103 W/m² | - |
| 1777985704 | 21.11° C | 86% | 1003.5 hPa | 0 mm | - | 97 W/m² | - |
| 1777985401 | 21.11° C | 86% | 1003.7 hPa | 0 mm | - | 79 W/m² | - |
* Rain latest hour (hover to see other rain measurements)
** Current wind speed in m/s (hover to see current wind gust speed)